Location: Bakov nad Jizerou
(50.4784°N, 14.9394°E)
Time: 19:31:52
(UTC+00:00)

Cosmos 1703 - Pass Details

Date: 25 October 2021
Orbit: 521 x 539 km, 82.5° (Epoch: 01 December)

Event Time Altitude Azimuth Distance (km) Brightness Sun altitude
Rises 16:26:27 0° 348° (NNW) 2,691 6.9 -6.7°
Reaches altitude 10° 16:28:37 10° 347° (NNW) 1,792 6.0 -7.0°
Maximum altitude 16:32:33 78° 262° (W) 547 3.4 -7.6°
Drops below altitude 10° 16:36:25 10° 176° (S) 1,766 6.0 -8.3°
Sets 16:38:32 0° 175° (S) 2,647 6.9 -8.6°
